Wind_Speed
54 56 57 58 58 59 61 62 62 63 63 65 66 66 66 66 67 67 68 68 69 70 71 71 70 70 70 69 69 69 69 70 70 69 68 68 68 68 69 68 67 67 66
53 54 56 57 58 59 60 61 61 62 63 64 65 66 67 67 67 68 68 69 69 71 71 72 72 72 71 70 70 69 69 70 70 70 69 69 68 68 69 68 68 69 68
52 54 55 56 58 59 60 61 61 62 62 64 65 66 67 67 68 69 69 70 70 70 70 71 71 72 71 70 70 70 70 70 71 72 71 71 70 70 70 69 69 69 68
50 51 53 55 57 59 60 61 62 63 63 64 64 65 66 67 67 68 68 68 68 68 68 69 70 70 70 71 71 71 70 71 71 72 71 71 70 70 70 70 70 70 70
48 50 51 52 54 57 59 60 61 62 63 64 63 63 64 66 66 67 68 68 68 68 68 68 68 69 69 70 71 70 71 71 72 72 71 72 71 71 71 71 71 71 71
48 49 51 52 54 56 57 59 60 62 63 63 64 64 65 65 66 66 66 67 68 69 69 68 68 68 68 68 69 70 71 72 72 72 72 73 72 73 73 72 72 71 71
48 49 50 52 53 54 56 58 59 61 62 62 63 64 65 65 65 65 66 67 68 69 69 69 69 69 68 68 70 71 71 71 72 73 73 72 72 72 72 73 72 71 71
47 48 50 51 52 53 55 56 57 60 62 63 64 65 66 65 65 66 67 68 68 68 68 69 69 69 69 69 69 70 70 70 71 71 72 72 71 71 70 70 70 70 69
47 48 50 52 53 54 55 57 58 59 61 63 64 65 65 65 66 66 66 67 67 68 67 67 68 69 69 70 70 70 69 69 69 69 70 70 69 69 68 68 67 67 66
48 50 51 52 53 55 56 57 57 58 60 62 63 64 64 64 65 65 66 67 67 67 67 67 67 67 68 68 68 68 67 67 67 67 67 66 66 65 65 65 65 64 64
50 51 52 53 53 54 55 56 57 58 58 59 60 61 62 62 63 63 64 65 65 65 65 65 66 66 66 66 66 66 66 66 65 65 65 64 64 64 63 63 62 62 62
49 50 51 51 51 51 52 53 54 54 55 55 56 57 58 59 60 60 61 61 62 63 64 64 64 64 65 65 65 64 64 64 63 62 62 62 62 62 61 61 60 60 61
49 50 50 50 51 51 51 52 52 53 54 55 55 55 56 56 57 58 58 59 60 61 62 62 61 62 62 62 62 62 61 60 59 59 59 58 58 58 58 58 58 58 59
50 50 50 50 50 51 51 51 52 53 54 55 55 55 56 55 55 55 56 57 58 59 59 59 59 59 60 60 59 58 57 56 56 56 56 56 56 56 56 56 57 57 56
50 50 50 50 50 51 51 51 51 52 54 54 55 55 55 54 54 56 56 56 57 57 57 57 57 57 57 56 56 55 54 54 54 54 54 54 54 54 54 54 54 54 54
50 49 49 50 51 51 51 51 52 53 53 53 53 53 53 54 54 55 56 56 55 54 54 54 53 53 52 51 51 51 51 51 52 53 53 53 53 53 53 52 52 52 52
50 50 50 50 51 51 51 51 52 52 53 53 52 52 53 53 54 54 54 53 53 52 51 51 50 49 48 48 48 48 49 50 50 51 51 51 51 50 50 50 50 50 50
51 51 51 51 51 51 51 51 52 51 51 51 51 52 52 52 51 51 50 50 49 48 48 47 47 46 45 45 45 45 46 47 48 48 48 48 48 48 48 48 47 47 46
51 51 51 51 51 51 51 51 51 51 50 49 49 49 49 48 47 47 47 46 45 45 44 43 43 42 42 42 42 43 44 44 44 44 44 44 45 44 45 44 44 44 43
51 51 51 51 51 51 51 51 50 49 48 47 47 47 46 45 44 44 44 44 43 42 41 40 40 40 40 40 40 41 41 41 41 41 41 41 41 42 42 42 42 42 42
51 50 50 50 50 50 50 49 48 47 46 45 45 45 45 44 43 43 42 42 40 39 37 37 37 38 38 38 38 38 38 39 39 40 40 40 40 40 40 40 40 40 40
50 50 49 49 49 49 48 47 46 45 45 44 44 43 43 42 42 42 41 40 38 37 36 35 36 36 37 37 37 36 36 36 37 37 37 37 38 37 37 36 36 36 36
49 49 49 49 48 48 47 46 45 44 44 43 43 42 42 41 41 40 39 38 37 36 35 35 35 35 36 35 34 34 34 34 34 34 35 35 34 33 33 34 34 34 34
49 49 49 48 48 47 46 45 44 43 43 42 42 42 41 40 40 39 39 37 35 35 35 35 34 34 34 34 33 32 32 32 32 31 32 32 31 31 32 32 32 32 33
49 49 49 48 46 45 45 44 43 42 42 42 42 41 40 40 39 38 36 34 34 33 33 32 31 31 31 31 30 29 29 29 29 29 28 28 29 29 30 30 30 30 31
49 48 48 46 45 45 44 43 42 42 42 41 41 40 39 38 37 35 33 32 31 30 30 30 29 29 28 27 27 27 27 27 27 27 27 27 27 27 28 28 28 28 28
Wind_Direction
266 265 266 267 267 266 267 267 267 266 267 268 269 269 269 270 269 269 269 269 268 268 268 269 270 270 270 271 272 272 273 275 276 276 276 275 276 276 276 276 275 276 276
269 268 268 268 267 267 267 267 268 269 269 269 270 271 271 271 271 271 270 270 271 271 270 270 270 270 271 272 273 274 275 275 275 275 275 275 275 275 275 275 276 277 277
273 272 271 269 268 268 267 267 268 269 270 270 270 271 271 271 271 272 272 271 272 272 272 272 271 271 272 273 274 274 274 275 275 276 275 275 275 275 275 275 276 277 276
275 275 274 272 270 270 270 269 269 269 270 271 271 271 272 272 272 272 272 272 272 273 273 273 274 273 273 274 275 275 275 275 275 275 275 275 275 275 275 275 276 276 276
277 277 276 275 273 272 272 272 271 270 271 272 272 273 274 274 274 274 273 273 273 273 273 274 275 274 274 274 274 274 274 275 275 275 275 275 275 276 276 276 277 276 276
279 278 278 277 275 274 274 274 273 273 273 274 274 274 275 275 275 275 275 275 275 275 275 275 275 275 274 274 274 275 275 275 275 275 275 276 276 276 276 277 277 276 277
282 282 281 280 279 278 277 276 275 274 274 275 275 275 276 276 276 276 276 276 276 276 276 276 276 276 275 275 275 276 276 276 276 276 276 276 276 276 276 276 276 276 277
286 285 284 283 282 281 280 279 278 277 276 276 277 277 277 277 277 277 277 276 276 276 276 276 276 276 276 277 276 276 277 277 277 277 276 276 276 276 275 275 275 276 276
290 289 288 286 284 283 283 281 280 280 279 278 278 278 279 278 278 277 277 276 276 276 276 276 277 277 278 278 277 277 278 278 277 277 276 276 276 275 275 275 275 276 276
294 293 292 289 287 285 284 284 283 282 282 281 280 280 279 279 278 278 277 277 277 276 276 276 276 277 278 278 278 278 278 278 278 277 276 276 276 275 275 275 275 275 276
296 295 294 292 290 288 287 286 285 284 284 284 283 283 282 281 281 281 280 279 278 277 277 277 276 276 277 277 278 279 279 279 278 278 277 276 276 276 276 276 276 276 276
297 297 296 294 293 292 290 289 289 288 286 286 286 285 284 284 283 283 282 281 281 280 279 278 277 277 277 278 278 279 279 279 278 277 276 276 276 276 276 276 276 275 275
299 298 297 296 295 294 293 293 291 290 289 288 288 288 287 286 285 284 283 283 282 282 281 280 280 279 279 279 279 279 279 278 277 276 276 275 275 275 276 276 275 275 275
299 298 298 297 296 295 295 294 293 292 291 290 290 290 289 288 287 286 285 285 284 284 284 282 282 282 281 280 280 279 278 277 276 275 274 274 274 274 275 275 275 275 275
299 299 298 298 297 297 296 295 295 294 294 293 292 291 290 289 289 288 287 286 286 286 284 283 283 282 282 280 279 279 278 277 276 275 275 275 274 274 274 275 275 274 274
299 299 299 299 299 298 297 296 295 295 295 295 294 293 292 291 290 290 289 288 287 286 286 285 284 283 281 280 279 278 278 277 276 276 275 275 275 275 275 274 274 275 275
300 300 300 301 301 300 299 297 297 296 296 296 295 294 293 293 293 292 291 290 288 287 286 285 284 282 281 279 278 278 277 277 277 276 276 275 275 274 274 274 274 274 274
301 301 301 301 301 301 301 300 299 298 297 296 296 296 295 295 295 294 293 292 290 289 287 286 285 283 282 280 279 279 278 277 277 277 277 275 275 274 274 274 274 274 274
302 301 301 301 301 301 301 301 300 299 298 297 297 297 297 297 296 295 294 293 292 291 288 286 284 284 283 281 280 280 278 278 278 278 277 277 276 275 274 274 275 275 275
303 302 302 301 301 301 301 301 300 300 299 299 298 298 297 297 297 296 295 294 293 292 289 286 285 285 284 283 282 281 280 279 279 279 279 279 278 277 277 276 275 275 274
304 303 302 302 302 302 302 301 301 300 300 300 299 299 298 297 297 297 296 295 293 292 289 287 286 286 285 284 283 282 281 281 281 281 281 280 280 278 278 276 274 273 273
303 303 303 303 303 303 303 302 302 301 300 299 300 299 298 298 298 297 297 295 294 292 291 289 289 287 286 285 284 283 283 283 282 282 282 281 279 278 277 276 276 275 275
303 303 303 303 303 303 303 303 302 301 300 300 299 299 298 297 297 297 296 294 293 292 291 289 289 288 288 287 285 285 285 285 285 284 283 282 280 278 278 278 277 276 276
302 302 302 302 303 303 303 302 302 301 300 300 299 298 298 298 298 297 295 294 293 292 290 289 289 289 289 288 287 286 286 286 285 285 284 282 280 278 278 278 277 276 276
302 303 303 302 302 302 302 301 300 300 300 299 299 298 298 298 298 297 296 294 293 292 291 290 290 290 289 288 287 287 287 287 287 285 284 282 281 280 280 280 279 278 277
302 303 303 301 301 301 300 300 299 299 300 300 300 299 299 298 298 296 295 294 293 292 291 291 291 291 290 289 288 287 288 289 288 287 286 285 284 284 284 284 282 281 279
Height
5660 5659 5659 5658 5657 5656 5655 5655 5654 5653 5653 5652 5652 5651 5650 5649 5649 5648 5647 5646 5645 5644 5643 5642 5640 5639 5637 5636 5634 5632 5630 5627 5626 5628 5626 5624 5621 5619 5617 5614 5612 5609 5608
5647 5645 5644 5643 5641 5640 5640 5639 5638 5637 5637 5636 5635 5634 5633 5631 5631 5630 5629 5628 5627 5626 5624 5623 5622 5620 5619 5617 5615 5613 5611 5609 5607 5607 5607 5605 5603 5600 5598 5596 5593 5591 5590
5632 5630 5629 5627 5625 5624 5623 5622 5622 5621 5620 5619 5618 5617 5615 5614 5612 5611 5610 5609 5608 5606 5605 5604 5602 5601 5600 5598 5596 5594 5592 5590 5588 5587 5587 5585 5584 5581 5578 5577 5575 5572 5570
5618 5616 5613 5612 5610 5608 5607 5606 5605 5604 5603 5602 5601 5599 5598 5596 5594 5593 5591 5590 5588 5587 5585 5584 5583 5581 5580 5578 5577 5575 5573 5571 5569 5566 5566 5565 5563 5561 5558 5557 5555 5553 5551
5604 5601 5599 5596 5595 5593 5591 5589 5588 5587 5586 5585 5583 5582 5580 5578 5576 5574 5573 5571 5569 5568 5566 5565 5563 5561 5560 5558 5556 5555 5552 5550 5548 5546 5544 5543 5542 5540 5538 5536 5534 5533 5531
5590 5587 5584 5582 5579 5577 5575 5573 5571 5569 5568 5567 5565 5564 5562 5560 5558 5556 5553 5552 5550 5549 5547 5545 5543 5541 5539 5538 5536 5533 5531 5529 5527 5525 5523 5522 5520 5518 5516 5514 5512 5511 5511
5575 5572 5569 5566 5563 5561 5558 5556 5554 5552 5550 5548 5546 5544 5543 5541 5539 5536 5534 5531 5530 5528 5527 5525 5523 5521 5519 5517 5515 5513 5511 5508 5505 5503 5501 5500 5499 5498 5496 5494 5492 5490 5489
5561 5558 5554 5551 5548 5545 5542 5539 5536 5534 5531 5529 5527 5525 5523 5521 5519 5516 5514 5512 5510 5508 5507 5505 5503 5501 5499 5496 5495 5493 5490 5488 5486 5483 5481 5479 5477 5475 5474 5472 5471 5470 5469
5548 5544 5540 5536 5532 5529 5525 5523 5519 5516 5514 5511 5508 5506 5503 5501 5499 5496 5493 5490 5489 5488 5486 5484 5482 5480 5478 5476 5474 5472 5470 5468 5464 5462 5459 5457 5455 5454 5453 5452 5450 5449 5449
5534 5530 5525 5520 5516 5512 5508 5505 5501 5498 5495 5492 5489 5486 5483 5481 5479 5475 5472 5470 5469 5467 5465 5463 5461 5459 5457 5454 5452 5450 5448 5447 5444 5442 5439 5437 5435 5434 5432 5431 5431 5429 5429
5520 5515 5510 5504 5500 5495 5491 5487 5483 5480 5476 5473 5470 5467 5464 5461 5459 5455 5452 5449 5447 5445 5444 5442 5441 5439 5436 5434 5432 5429 5428 5425 5423 5421 5420 5418 5416 5415 5413 5412 5411 5410 5410
5507 5501 5495 5489 5484 5479 5475 5471 5466 5462 5459 5455 5452 5449 5445 5442 5439 5436 5433 5430 5427 5425 5423 5422 5421 5419 5416 5414 5412 5410 5408 5406 5404 5402 5401 5399 5398 5397 5395 5394 5393 5391 5391
5493 5486 5480 5475 5470 5464 5460 5455 5451 5446 5442 5439 5435 5431 5428 5425 5421 5418 5414 5411 5408 5405 5403 5402 5400 5398 5396 5394 5392 5390 5388 5386 5385 5384 5383 5381 5380 5379 5377 5376 5375 5373 5373
5478 5472 5466 5461 5456 5451 5446 5440 5436 5431 5427 5422 5418 5415 5411 5407 5404 5400 5396 5393 5390 5387 5385 5383 5381 5379 5377 5375 5374 5371 5370 5368 5367 5366 5365 5364 5363 5362 5360 5359 5358 5357 5356
5464 5459 5453 5447 5442 5437 5432 5426 5421 5417 5411 5406 5402 5398 5394 5391 5387 5382 5378 5375 5372 5369 5366 5365 5363 5361 5359 5357 5355 5353 5352 5351 5349 5348 5347 5347 5346 5345 5344 5342 5341 5340 5340
5451 5445 5439 5434 5428 5422 5417 5413 5407 5402 5396 5391 5386 5381 5377 5373 5369 5365 5361 5358 5354 5351 5348 5347 5345 5342 5340 5339 5338 5337 5335 5334 5333 5331 5331 5330 5329 5328 5327 5326 5325 5324 5323
5436 5431 5425 5420 5414 5408 5402 5397 5392 5388 5382 5376 5371 5366 5361 5357 5353 5349 5344 5341 5337 5334 5331 5329 5327 5326 5324 5322 5321 5320 5319 5318 5316 5315 5314 5313 5312 5311 5311 5310 5309 5308 5308
5423 5417 5411 5406 5400 5394 5388 5383 5377 5372 5368 5362 5357 5351 5346 5342 5337 5333 5329 5325 5322 5319 5316 5313 5311 5310 5308 5307 5305 5304 5303 5302 5300 5299 5298 5297 5296 5295 5295 5294 5294 5293 5292
5409 5403 5397 5392 5386 5380 5375 5369 5363 5358 5353 5348 5343 5338 5333 5328 5323 5319 5315 5311 5308 5305 5302 5299 5297 5296 5294 5293 5291 5290 5288 5287 5286 5284 5283 5282 5281 5280 5280 5279 5278 5278 5278
5396 5389 5384 5378 5372 5367 5361 5355 5350 5344 5339 5334 5329 5324 5320 5316 5311 5307 5302 5298 5295 5292 5290 5287 5285 5283 5281 5279 5278 5276 5275 5273 5272 5271 5269 5268 5267 5266 5265 5265 5264 5264 5264
5383 5376 5370 5365 5359 5353 5347 5341 5336 5331 5326 5321 5316 5311 5307 5303 5299 5295 5291 5287 5283 5281 5278 5276 5273 5271 5269 5267 5265 5263 5262 5260 5259 5258 5256 5255 5254 5253 5252 5251 5251 5250 5250
5369 5363 5358 5352 5346 5340 5334 5329 5323 5318 5313 5309 5305 5300 5295 5291 5287 5283 5279 5275 5272 5269 5267 5264 5262 5259 5257 5255 5253 5251 5250 5248 5247 5245 5244 5243 5241 5240 5239 5238 5238 5237 5237
5356 5350 5345 5339 5333 5327 5322 5316 5311 5306 5301 5297 5292 5288 5284 5280 5276 5272 5268 5264 5261 5258 5256 5253 5251 5248 5246 5244 5242 5240 5239 5237 5235 5234 5232 5231 5229 5228 5227 5227 5226 5226 5226
5343 5337 5332 5326 5320 5315 5309 5304 5299 5294 5289 5285 5281 5276 5272 5268 5264 5260 5257 5253 5251 5248 5245 5242 5240 5237 5235 5233 5231 5229 5228 5226 5225 5223 5222 5221 5219 5218 5217 5216 5215 5215 5214
5330 5324 5318 5313 5307 5302 5297 5292 5287 5282 5277 5273 5269 5265 5261 5257 5253 5249 5246 5243 5240 5237 5234 5232 5229 5227 5225 5223 5221 5219 5218 5217 5215 5213 5212 5211 5210 5208 5207 5206 5205 5204 5204
5316 5311 5305 5300 5294 5289 5284 5280 5275 5270 5266 5261 5257 5253 5249 5245 5242 5239 5235 5233 5230 5227 5225 5222 5220 5218 5216 5214 5212 5211 5209 5208 5206 5204 5203 5202 5201 5199 5198 5197 5196 5195 5194